Time,TemperatureF,DewpointF,PressureIn,WindDirection,WindDirectionDegrees,WindSpeedMPH,WindSpeedGustMPH,Humidity,HourlyPrecipIn,Conditions,Clouds,dailyrainin,SoftwareType,DateUTC
2013-10-23 00:14:00,44.0,36.0,29.83,NNW,340,0.0,1.0,74,0.00,,,0.00,,2013-10-23 04:14:00,
2013-10-23 00:24:00,44.0,36.0,29.83,NNW,329,0.0,1.0,74,0.00,,,0.00,,2013-10-23 04:24:00,
2013-10-23 00:45:00,43.0,36.0,29.82,NNW,329,0.0,1.0,75,0.00,,,0.00,,2013-10-23 04:45:00,
2013-10-23 00:55:00,43.0,36.0,29.83,NNW,335,0.0,1.0,76,0.00,,,0.00,,2013-10-23 04:55:00,
2013-10-23 01:13:00,43.0,36.0,29.83,WNW,286,0.0,1.0,76,0.00,,,0.00,,2013-10-23 05:13:00,
2013-10-23 01:23:00,42.0,35.0,29.83,WNW,286,0.0,0.0,77,0.00,,,0.00,,2013-10-23 05:23:00,
2013-10-23 01:53:00,41.0,35.0,29.83,WNW,286,0.0,0.0,78,0.00,,,0.00,,2013-10-23 05:53:00,
2013-10-23 02:22:00,40.0,35.0,29.82,WNW,286,0.0,0.0,81,0.00,,,0.00,,2013-10-23 06:22:00,
2013-10-23 02:42:00,40.0,34.0,29.82,WNW,286,0.0,0.0,80,0.00,,,0.00,,2013-10-23 06:42:00,
2013-10-23 02:52:00,40.0,34.0,29.82,WNW,286,0.0,0.0,80,0.00,,,0.00,,2013-10-23 06:52:00,
2013-10-23 03:22:00,39.0,34.0,29.81,WNW,286,0.0,0.0,81,0.00,,,0.00,,2013-10-23 07:22:00,
2013-10-23 03:42:00,39.0,34.0,29.81,WNW,286,0.0,0.0,81,0.00,,,0.00,,2013-10-23 07:42:00,
2013-10-23 03:52:00,38.0,33.0,29.80,WNW,286,0.0,0.0,82,0.00,,,0.00,,2013-10-23 07:52:00,
2013-10-23 04:12:00,38.0,33.0,29.80,WNW,286,0.0,0.0,83,0.00,,,0.00,,2013-10-23 08:12:00,
2013-10-23 04:22:00,38.0,33.0,29.80,WNW,286,0.0,0.0,82,0.00,,,0.00,,2013-10-23 08:22:00,
2013-10-23 04:53:00,37.0,33.0,29.80,WNW,286,0.0,0.0,84,0.00,,,0.00,,2013-10-23 08:53:00,
2013-10-23 05:12:00,37.0,33.0,29.79,WNW,286,0.0,0.0,84,0.00,,,0.00,,2013-10-23 09:12:00,
2013-10-23 05:22:00,37.0,33.0,29.79,WNW,286,0.0,0.0,84,0.00,,,0.00,,2013-10-23 09:22:00,
2013-10-23 05:43:00,38.0,34.0,29.78,WNW,286,0.0,0.0,85,0.00,,,0.00,,2013-10-23 09:43:00,
2013-10-23 05:53:00,38.0,34.0,29.79,WNW,286,0.0,0.0,85,0.00,,,0.00,,2013-10-23 09:53:00,
2013-10-23 06:23:00,37.0,33.0,29.79,WNW,286,0.0,0.0,86,0.00,,,0.00,,2013-10-23 10:23:00,
2013-10-23 06:53:00,37.0,34.0,29.79,WNW,286,0.0,0.0,87,0.00,,,0.00,,2013-10-23 10:53:00,
2013-10-23 07:12:00,37.0,34.0,29.79,WNW,286,0.0,0.0,87,0.00,,,0.00,,2013-10-23 11:12:00,
2013-10-23 07:22:00,36.0,33.0,29.79,WNW,286,0.0,0.0,87,0.00,,,0.00,,2013-10-23 11:22:00,
2013-10-23 07:42:00,36.0,33.0,29.79,WNW,286,0.0,0.0,87,0.00,,,0.00,,2013-10-23 11:42:00,
2013-10-23 07:52:00,36.0,33.0,29.79,WNW,286,0.0,0.0,87,0.00,,,0.00,,2013-10-23 11:52:00,
2013-10-23 08:12:00,36.0,33.0,29.80,WNW,286,0.0,0.0,88,0.00,,,0.00,,2013-10-23 12:12:00,
2013-10-23 08:22:00,37.0,34.0,29.79,WNW,286,0.0,0.0,89,0.00,,,0.00,,2013-10-23 12:22:00,
2013-10-23 08:42:00,38.0,35.0,29.79,WNW,286,0.0,0.0,89,0.00,,,0.00,,2013-10-23 12:42:00,
2013-10-23 08:52:00,39.0,36.0,29.79,WNW,286,0.0,0.0,89,0.00,,,0.00,,2013-10-23 12:52:00,
2013-10-23 09:12:00,40.0,37.0,29.79,NNE,19,0.0,0.0,90,0.00,,,0.00,,2013-10-23 13:12:00,
2013-10-23 09:22:00,42.0,39.0,29.80,NNE,19,0.0,0.0,90,0.00,,,0.00,,2013-10-23 13:22:00,
2013-10-23 09:42:00,42.0,39.0,29.79,North,5,0.0,2.0,89,0.00,,,0.00,,2013-10-23 13:42:00,
2013-10-23 09:52:00,43.0,40.0,29.79,North,360,0.0,1.0,89,0.00,,,0.00,,2013-10-23 13:52:00,
2013-10-23 10:11:00,44.0,39.0,29.78,South,191,0.0,2.0,82,0.00,,,0.00,,2013-10-23 14:11:00,
2013-10-23 10:22:00,44.0,38.0,29.78,WNW,301,0.0,2.0,78,0.00,,,0.00,,2013-10-23 14:22:00,
2013-10-23 10:52:00,45.0,36.0,29.76,NW,324,0.0,4.0,70,0.00,,,0.00,,2013-10-23 14:52:00,
2013-10-23 11:22:00,46.0,37.0,29.76,North,349,0.0,2.0,71,0.00,,,0.00,,2013-10-23 15:22:00,
2013-10-23 11:43:00,46.0,36.0,29.76,North,355,0.0,3.0,67,0.00,,,0.00,,2013-10-23 15:43:00,
2013-10-23 11:53:00,46.0,34.0,29.76,North,360,0.0,3.0,63,0.00,,,0.00,,2013-10-23 15:53:00,
2013-10-23 12:23:00,47.0,36.0,29.73,NNW,331,1.0,3.0,65,0.00,,,0.00,,2013-10-23 16:23:00,
2013-10-23 12:53:00,51.0,37.0,29.71,NW,310,1.0,6.0,59,0.00,,,0.00,,2013-10-23 16:53:00,
2013-10-23 13:12:00,51.0,36.0,29.70,East,99,2.0,5.0,56,0.00,,,0.00,,2013-10-23 17:12:00,
2013-10-23 13:23:00,50.0,34.0,29.69,NNW,331,1.0,5.0,55,0.00,,,0.00,,2013-10-23 17:23:00,
2013-10-23 13:44:00,50.0,35.0,29.68,NE,34,1.0,3.0,56,0.00,,,0.00,,2013-10-23 17:44:00,
2013-10-23 13:52:00,50.0,35.0,29.65,NNW,329,1.0,6.0,56,0.00,,,0.00,,2013-10-23 17:52:00,
2013-10-23 14:12:00,51.0,35.0,29.65,NW,316,0.0,4.0,54,0.00,,,0.00,,2013-10-23 18:12:00,
2013-10-23 14:22:00,51.0,34.0,29.65,NE,38,0.0,4.0,52,0.00,,,0.00,,2013-10-23 18:22:00,
2013-10-23 14:42:00,51.0,34.0,29.65,NNE,32,0.0,2.0,52,0.00,,,0.00,,2013-10-23 18:42:00,
2013-10-23 14:52:00,51.0,34.0,29.64,ENE,72,1.0,4.0,51,0.00,,,0.00,,2013-10-23 18:52:00,
2013-10-23 15:12:00,53.0,33.0,29.64,ENE,78,0.0,2.0,47,0.00,,,0.00,,2013-10-23 19:12:00,
2013-10-23 15:22:00,53.0,35.0,29.64,NW,326,1.0,3.0,51,0.00,,,0.00,,2013-10-23 19:22:00,
2013-10-23 15:42:00,53.0,33.0,29.64,WSW,242,1.0,2.0,47,0.00,,,0.00,,2013-10-23 19:42:00,
2013-10-23 15:53:00,54.0,36.0,29.64,NNE,19,0.0,2.0,50,0.00,,,0.00,,2013-10-23 19:53:00,
2013-10-23 16:11:00,54.0,33.0,29.64,NNW,347,0.0,4.0,45,0.00,,,0.00,,2013-10-23 20:11:00,
2013-10-23 16:22:00,54.0,34.0,29.64,NNE,15,0.0,3.0,46,0.00,,,0.00,,2013-10-23 20:22:00,
2013-10-23 16:52:00,52.0,31.0,29.64,NNE,21,1.0,7.0,45,0.00,,,0.00,,2013-10-23 20:52:00,
2013-10-23 17:12:00,52.0,32.0,29.64,West,273,1.0,4.0,46,0.00,,,0.00,,2013-10-23 21:12:00,
2013-10-23 17:22:00,50.0,31.0,29.64,WSW,249,2.0,7.0,48,0.00,,,0.00,,2013-10-23 21:22:00,
2013-10-23 17:43:00,49.0,32.0,29.65,NW,313,1.0,4.0,51,0.00,,,0.00,,2013-10-23 21:43:00,
2013-10-23 17:54:00,49.0,33.0,29.65,NNW,329,2.0,5.0,53,0.00,,,0.00,,2013-10-23 21:54:00,
2013-10-23 18:13:00,48.0,33.0,29.66,West,279,0.0,3.0,55,0.00,,,0.00,,2013-10-23 22:13:00,
2013-10-23 18:24:00,47.0,32.0,29.66,NW,313,1.0,4.0,56,0.00,,,0.00,,2013-10-23 22:24:00,
2013-10-23 18:43:00,47.0,33.0,29.66,NW,322,0.0,3.0,57,0.00,,,0.00,,2013-10-23 22:43:00,
2013-10-23 18:54:00,47.0,33.0,29.67,North,360,0.0,3.0,58,0.00,,,0.00,,2013-10-23 22:54:00,
2013-10-23 19:12:00,46.0,33.0,29.67,NW,313,0.0,1.0,60,0.00,,,0.00,,2013-10-23 23:12:00,
2013-10-23 19:23:00,46.0,34.0,29.68,NNW,329,0.0,1.0,62,0.00,,,0.00,,2013-10-23 23:23:00,
2013-10-23 19:42:00,46.0,35.0,29.69,West,280,0.0,3.0,64,0.00,,,0.00,,2013-10-23 23:42:00,
2013-10-23 19:53:00,45.0,34.0,29.69,WNW,286,0.0,3.0,65,0.00,,,0.00,,2013-10-23 23:53:00,
2013-10-23 20:12:00,45.0,35.0,29.68,West,281,0.0,4.0,67,0.00,,,0.00,,2013-10-24 00:12:00,
2013-10-23 20:22:00,45.0,35.0,29.69,West,277,0.0,4.0,68,0.00,,,0.00,,2013-10-24 00:22:00,
2013-10-23 20:52:00,44.0,34.0,29.70,WNW,290,1.0,3.0,69,0.00,,,0.00,,2013-10-24 00:52:00,
2013-10-23 21:11:00,44.0,34.0,29.70,NNW,346,0.0,4.0,69,0.00,,,0.00,,2013-10-24 01:11:00,
2013-10-23 21:22:00,44.0,35.0,29.71,West,280,1.0,6.0,70,0.00,,,0.00,,2013-10-24 01:22:00,
2013-10-23 21:42:00,44.0,36.0,29.71,West,265,1.0,5.0,72,0.00,,,0.00,,2013-10-24 01:42:00,
2013-10-23 21:52:00,44.0,36.0,29.72,NW,314,0.0,4.0,73,0.00,,,0.00,,2013-10-24 01:52:00,
2013-10-23 22:12:00,44.0,36.0,29.72,West,281,0.0,2.0,73,0.00,,,0.00,,2013-10-24 02:12:00,
2013-10-23 22:22:00,44.0,36.0,29.73,West,270,0.0,2.0,73,0.00,,,0.00,,2013-10-24 02:22:00,
2013-10-23 23:22:00,43.0,36.0,29.73,WNW,287,0.0,1.0,75,0.00,,,0.00,,2013-10-24 03:22:00,
2013-10-23 23:55:00,43.0,36.0,29.74,West,272,0.0,1.0,75,0.00,,,0.00,,2013-10-24 03:55:00,